Radiation Dose at Monitoring Post of Fukushima Daini Nuclear Power Station
Date,Time,MP-1(microSv/h),MP-2(microSv/h),MP-3(microSv/h),MP-4(microSv/h),MP-5(microSv/h),MP-6(microSv/h),MP-7(microSv/h),Wind Direction,Wind Velocity(m/s),Rain
2016/06/11,00:00,0.423,0.249,0.440,0.400,0.375,0.204,0.177,southwest,2.6,No
2016/06/11,00:10,0.424,0.248,0.440,0.404,0.375,0.203,0.177,southwest,1.7,No
2016/06/11,00:20,0.423,0.248,0.442,0.399,0.377,0.204,0.178,west-southwest,0.7,No
2016/06/11,00:30,0.423,0.249,0.439,0.405,0.376,0.204,0.177,west-northwest,0.6,No
2016/06/11,00:40,0.423,0.248,0.441,0.399,0.377,0.204,0.177,north-northwest,1.0,No
2016/06/11,00:50,0.425,0.250,0.439,0.403,0.375,0.203,0.177,north,2.3,No
2016/06/11,01:00,0.421,0.249,0.442,0.401,0.378,0.203,0.178,north,2.7,No
2016/06/11,01:10,0.424,0.250,0.439,0.400,0.374,0.203,0.178,north-northwest,2.5,No
2016/06/11,01:20,0.423,0.249,0.441,0.402,0.377,0.203,0.177,northwest,2.1,No
2016/06/11,01:30,0.423,0.250,0.439,0.399,0.374,0.203,0.177,north-northwest,2.1,No
2016/06/11,01:40,0.422,0.249,0.438,0.401,0.374,0.203,0.177,north-northwest,2.0,No
2016/06/11,01:50,0.423,0.249,0.443,0.401,0.376,0.203,0.178,north-northwest,1.2,No
2016/06/11,02:00,0.424,0.249,0.438,0.403,0.375,0.204,0.177,south-southwest,1.0,No
2016/06/11,02:10,0.422,0.249,0.443,0.399,0.377,0.203,0.177,south-southwest,1.8,No
2016/06/11,02:20,0.425,0.248,0.439,0.399,0.376,0.204,0.178,southwest,1.2,No
2016/06/11,02:30,0.422,0.250,0.442,0.401,0.374,0.203,0.177,-,CALM,No
2016/06/11,02:40,0.423,0.248,0.440,0.401,0.375,0.203,0.178,-,CALM,No
2016/06/11,02:50,0.423,0.251,0.440,0.402,0.374,0.204,0.177,northeast,0.6,No
2016/06/11,03:00,0.423,0.249,0.440,0.400,0.375,0.204,0.177,northeast,0.9,No
2016/06/11,03:10,0.424,0.248,0.441,0.402,0.375,0.204,0.177,-,CALM,No
2016/06/11,03:20,0.422,0.250,0.442,0.399,0.375,0.203,0.177,-,CALM,No
2016/06/11,03:30,0.424,0.248,0.440,0.404,0.377,0.204,0.177,-,CALM,No
2016/06/11,03:40,0.422,0.249,0.443,0.400,0.375,0.203,0.178,-,CALM,No
2016/06/11,03:50,0.424,0.249,0.439,0.401,0.377,0.203,0.177,east-northeast,0.6,No
2016/06/11,04:00,0.423,0.250,0.442,0.400,0.374,0.202,0.178,-,CALM,No
2016/06/11,04:10,0.423,0.248,0.439,0.399,0.377,0.202,0.177,-,CALM,No
2016/06/11,04:20,0.423,0.248,0.444,0.400,0.375,0.204,0.176,-,CALM,No
2016/06/11,04:30,0.424,0.249,0.440,0.399,0.377,0.203,0.177,-,CALM,No
2016/06/11,04:40,0.423,0.249,0.440,0.400,0.375,0.204,0.177,north,0.5,No
2016/06/11,04:50,0.424,0.249,0.440,0.399,0.377,0.203,0.177,north,0.7,No
2016/06/11,05:00,0.424,0.250,0.442,0.402,0.377,0.204,0.176,north,0.5,No
2016/06/11,05:10,0.422,0.248,0.440,0.401,0.376,0.204,0.178,north-northwest,0.6,No
2016/06/11,05:20,0.425,0.248,0.441,0.400,0.375,0.204,0.178,-,CALM,No
2016/06/11,05:30,0.422,0.250,0.442,0.399,0.376,0.204,0.178,-,CALM,No
2016/06/11,05:40,0.425,0.248,0.438,0.402,0.374,0.203,0.178,-,CALM,No
2016/06/11,05:50,0.422,0.249,0.441,0.400,0.375,0.203,0.177,-,CALM,No
2016/06/11,06:00,0.425,0.248,0.440,0.400,0.374,0.204,0.176,south-southeast,1.2,No
2016/06/11,06:10,0.423,0.247,0.442,0.399,0.372,0.204,0.178,southeast,1.0,No
2016/06/11,06:20,0.425,0.249,0.439,0.403,0.377,0.203,0.176,south-southeast,1.4,No
2016/06/11,06:30,0.421,0.248,0.440,0.399,0.375,0.204,0.174,southeast,1.5,No
2016/06/11,06:40,0.423,0.247,0.440,0.404,0.373,0.204,0.177,south,1.6,No
2016/06/11,06:50,0.423,0.247,0.439,0.401,0.378,0.205,0.177,south,1.6,No
2016/06/11,07:00,0.424,0.249,0.442,0.399,0.375,0.203,0.177,south-southwest,1.9,No
2016/06/11,07:10,0.424,0.248,0.438,0.400,0.376,0.204,0.176,south-southwest,2.8,No
2016/06/11,07:20,0.420,0.248,0.435,0.398,0.377,0.203,0.175,south-southwest,2.5,No
2016/06/11,07:30,0.426,0.246,0.439,0.397,0.375,0.204,0.179,south-southwest,3.0,No
2016/06/11,07:40,0.423,0.247,0.442,0.403,0.374,0.203,0.178,south,2.6,No
2016/06/11,07:50,0.420,0.246,0.438,0.402,0.379,0.203,0.178,south,2.5,No
2016/06/11,08:00,0.425,0.247,0.437,0.398,0.375,0.204,0.177,south-southeast,2.8,No
2016/06/11,08:10,0.424,0.248,0.438,0.398,0.371,0.203,0.176,south-southeast,2.8,No
2016/06/11,08:20,0.421,0.247,0.434,0.396,0.372,0.202,0.176,south-southeast,1.7,No
2016/06/11,08:30,0.425,0.248,0.437,0.397,0.374,0.203,0.179,east-southeast,0.8,No
2016/06/11,08:40,0.426,0.249,0.434,0.398,0.379,0.205,0.178,southeast,2.1,No
2016/06/11,08:50,0.422,0.248,0.436,0.397,0.377,0.205,0.177,southeast,2.8,No
2016/06/11,09:00,0.422,0.248,0.436,0.398,0.375,0.204,0.177,southeast,2.0,No
2016/06/11,09:10,0.420,0.248,0.442,0.398,0.374,0.204,0.176,east-southeast,1.5,No
2016/06/11,09:20,0.420,0.248,0.444,0.397,0.374,0.204,0.176,southeast,1.4,No
2016/06/11,09:30,0.421,0.249,0.441,0.399,0.373,0.204,0.177,south-southeast,1.6,No
2016/06/11,09:40,0.422,0.250,0.439,0.399,0.374,0.203,0.178,south-southeast,1.1,No
2016/06/11,09:50,0.419,0.249,0.438,0.400,0.372,0.204,0.178,south,2.3,No
2016/06/11,10:00,0.421,0.248,0.441,0.401,0.373,0.205,0.178,south-southeast,2.8,No
2016/06/11,10:10,0.422,0.250,0.445,0.401,0.374,0.205,0.178,south,3.9,No
2016/06/11,10:20,0.420,0.249,0.443,0.402,0.374,0.204,0.178,south,4.4,No
2016/06/11,10:30,0.421,0.249,0.442,0.401,0.373,0.204,0.177,south,5.0,No
2016/06/11,10:40,0.422,0.249,0.439,0.401,0.374,0.204,0.177,south,4.6,No
2016/06/11,10:50,0.422,0.248,0.439,0.400,0.374,0.204,0.176,south,5.7,No
2016/06/11,11:00,0.423,0.249,0.439,0.399,0.376,0.204,0.178,south,6.5,No
2016/06/11,11:10,0.421,0.249,0.438,0.400,0.375,0.204,0.177,south,6.5,No
2016/06/11,11:20,0.421,0.250,0.437,0.400,0.375,0.204,0.177,south,5.9,No
2016/06/11,11:30,0.426,0.249,0.438,0.400,0.375,0.206,0.177,south,6.8,No
2016/06/11,11:40,0.429,0.251,0.439,0.400,0.374,0.205,0.176,south,5.7,No
2016/06/11,11:50,0.428,0.252,0.439,0.399,0.375,0.205,0.180,south,5.7,No
2016/06/11,12:00,0.424,0.250,0.438,0.399,0.380,0.205,0.178,south-southeast,4.7,No
2016/06/11,12:10,0.422,0.250,0.438,0.400,0.381,0.204,0.179,south,5.4,No
2016/06/11,12:20,0.424,0.249,0.439,0.402,0.379,0.204,0.178,south-southeast,6.6,No
2016/06/11,12:30,0.429,0.248,0.439,0.399,0.378,0.205,0.178,south-southeast,6.2,No
2016/06/11,12:40,0.426,0.251,0.438,0.399,0.376,0.205,0.178,south-southeast,5.3,No
2016/06/11,12:50,0.424,0.251,0.439,0.400,0.375,0.205,0.178,south-southeast,5.9,No
2016/06/11,13:00,0.423,0.250,0.441,0.401,0.374,0.204,0.177,south,8.6,No
2016/06/11,13:10,0.429,0.250,0.441,0.399,0.372,0.204,0.177,south,10.0,No
2016/06/11,13:20,0.429,0.249,0.440,0.401,0.375,0.204,0.179,south,9.9,No
2016/06/11,13:30,0.423,0.247,0.441,0.402,0.374,0.205,0.178,south,10.4,No
2016/06/11,13:40,0.422,0.248,0.440,0.399,0.374,0.204,0.177,south,10.9,No
2016/06/11,13:50,0.422,0.248,0.440,0.401,0.375,0.205,0.178,south,11.2,No
2016/06/11,14:00,0.420,0.248,0.442,0.402,0.373,0.206,0.176,south,11.4,No
2016/06/11,14:10,0.421,0.247,0.442,0.400,0.376,0.206,0.177,south,10.7,No
2016/06/11,14:20,0.422,0.247,0.441,0.401,0.375,0.205,0.176,south,11.3,No
2016/06/11,14:30,0.421,0.250,0.440,0.401,0.375,0.204,0.177,south,11.7,No
2016/06/11,14:40,0.423,0.250,0.440,0.401,0.374,0.204,0.179,south,11.2,No
2016/06/11,14:50,0.430,0.251,0.440,0.402,0.375,0.205,0.179,south,10.8,No
2016/06/11,15:00,0.428,0.251,0.439,0.407,0.376,0.204,0.178,south,12.7,No
2016/06/11,15:10,0.424,0.249,0.439,0.406,0.374,0.206,0.177,south,11.7,No
2016/06/11,15:20,0.424,0.249,0.440,0.401,0.374,0.205,0.176,south,11.3,No
2016/06/11,15:30,0.430,0.249,0.441,0.403,0.375,0.205,0.177,south,12.1,No
2016/06/11,15:40,0.429,0.251,0.439,0.408,0.375,0.204,0.179,south,13.8,No
2016/06/11,15:50,0.424,0.251,0.441,0.403,0.374,0.204,0.178,south,14.5,No
2016/06/11,16:00,0.422,0.249,0.450,0.401,0.381,0.205,0.177,south,12.5,No
2016/06/11,16:10,0.427,0.249,0.446,0.406,0.382,0.206,0.179,south,13.6,No
2016/06/11,16:20,0.427,0.252,0.440,0.403,0.378,0.205,0.178,south,13.7,No
2016/06/11,16:30,0.423,0.251,0.444,0.401,0.377,0.204,0.179,south,12.8,No
2016/06/11,16:40,0.424,0.249,0.447,0.406,0.375,0.204,0.178,south,13.9,No
2016/06/11,16:50,0.429,0.251,0.444,0.406,0.374,0.204,0.178,south,12.2,No
2016/06/11,17:00,0.428,0.252,0.441,0.400,0.376,0.205,0.179,south,11.5,No
2016/06/11,17:10,0.425,0.250,0.447,0.406,0.379,0.205,0.180,south,11.6,No
2016/06/11,17:20,0.427,0.251,0.445,0.405,0.378,0.204,0.177,south,11.0,No
2016/06/11,17:30,0.431,0.251,0.439,0.401,0.377,0.206,0.180,south,11.4,No
2016/06/11,17:40,0.424,0.249,0.444,0.403,0.374,0.205,0.178,south,11.1,No
2016/06/11,17:50,0.426,0.252,0.446,0.406,0.377,0.204,0.180,south,10.1,No
2016/06/11,18:00,0.428,0.250,0.442,0.402,0.381,0.205,0.179,south-southwest,8.9,No
2016/06/11,18:10,0.426,0.251,0.443,0.405,0.376,0.205,0.178,south-southwest,8.5,No
2016/06/11,18:20,0.426,0.252,0.445,0.404,0.376,0.204,0.179,south,8.1,No
2016/06/11,18:30,0.428,0.250,0.442,0.402,0.379,0.205,0.179,south-southwest,9.3,No
2016/06/11,18:40,0.425,0.252,0.444,0.406,0.376,0.205,0.178,south-southwest,9.8,No
2016/06/11,18:50,0.425,0.252,0.446,0.404,0.377,0.205,0.180,south,10.4,No
2016/06/11,19:00,0.429,0.251,0.442,0.404,0.380,0.205,0.178,south-southwest,11.0,No
2016/06/11,19:10,0.423,0.251,0.445,0.404,0.376,0.204,0.179,south,11.4,No
2016/06/11,19:20,0.429,0.251,0.445,0.401,0.381,0.205,0.179,south-southwest,11.4,No
2016/06/11,19:30,0.426,0.250,0.442,0.406,0.378,0.203,0.179,south-southwest,9.9,No
2016/06/11,19:40,0.426,0.252,0.446,0.404,0.377,0.205,0.180,south-southwest,10.4,No
2016/06/11,19:50,0.428,0.249,0.444,0.402,0.379,0.205,0.178,south-southwest,9.8,No
2016/06/11,20:00,0.424,0.251,0.442,0.406,0.376,0.204,0.179,south,9.9,No
2016/06/11,20:10,0.428,0.251,0.447,0.402,0.379,0.205,0.179,south-southwest,10.4,No
2016/06/11,20:20,0.426,0.252,0.443,0.405,0.377,0.204,0.178,south,10.4,No
2016/06/11,20:30,0.425,0.250,0.446,0.405,0.376,0.205,0.179,south-southwest,9.9,No
2016/06/11,20:40,0.426,0.251,0.445,0.402,0.379,0.204,0.178,south-southwest,10.4,No
2016/06/11,20:50,0.424,0.252,0.442,0.406,0.375,0.203,0.180,south-southwest,10.7,No
2016/06/11,21:00,0.428,0.250,0.446,0.402,0.380,0.205,0.178,south-southwest,10.6,No
2016/06/11,21:10,0.425,0.253,0.443,0.406,0.376,0.204,0.179,south,10.0,No
2016/06/11,21:20,0.428,0.250,0.446,0.404,0.378,0.205,0.179,south-southwest,10.7,No
2016/06/11,21:30,0.427,0.252,0.444,0.405,0.377,0.205,0.179,south,9.6,No
2016/06/11,21:40,0.423,0.250,0.444,0.406,0.376,0.204,0.179,south-southwest,8.1,No
2016/06/11,21:50,0.428,0.250,0.446,0.404,0.378,0.205,0.177,south-southwest,8.1,No
2016/06/11,22:00,0.424,0.251,0.441,0.406,0.375,0.205,0.180,south-southwest,6.3,No
2016/06/11,22:10,0.429,0.250,0.446,0.403,0.380,0.204,0.178,south-southwest,4.8,No
2016/06/11,22:20,0.427,0.251,0.445,0.405,0.375,0.204,0.179,south-southwest,2.9,No
2016/06/11,22:30,0.427,0.251,0.443,0.405,0.379,0.205,0.177,south,1.1,No
2016/06/11,22:40,0.428,0.252,0.446,0.404,0.377,0.204,0.179,-,CALM,No
2016/06/11,22:50,0.427,0.251,0.443,0.406,0.377,0.206,0.180,-,CALM,No
2016/06/11,23:00,0.427,0.252,0.445,0.404,0.379,0.206,0.180,-,CALM,No
2016/06/11,23:10,0.425,0.251,0.443,0.407,0.378,0.206,0.180,southwest,1.0,No
2016/06/11,23:20,0.429,0.253,0.447,0.403,0.378,0.207,0.179,northwest,0.7,No
2016/06/11,23:30,0.425,0.251,0.445,0.406,0.379,0.206,0.180,north,1.0,No
2016/06/11,23:40,0.429,0.251,0.446,0.405,0.379,0.205,0.180,north-northeast,0.9,No
2016/06/11,23:50,0.426,0.252,0.446,0.408,0.378,0.205,0.180,-,CALM,No
